| time (UTC) | temp C | wind direction | speed KPH | gust KPH | rain 1hr cm | rain 24hr cm | rain mn cm | humidity % | barometer mb |
| 20260906231549 | 15 | 74 | 0.0 | 11.3 | 0.00 | 0.00 | 0.00 | 82 | 1016.7 |
| 20260906230052 | 15 | 115 | 3.2 | 11.3 | 0.00 | 0.00 | 0.00 | 84 | 1016.8 |
| 20260906224604 | 15 | 108 | 4.8 | 12.9 | 0.00 | 0.00 | 0.00 | 85 | 1016.8 |
| 20260906223052 | 15 | 97 | 6.4 | 17.7 | 0.00 | 0.00 | 0.00 | 85 | 1016.9 |
| 20260906221550 | 15 | 100 | 9.7 | 16.1 | 0.00 | 0.00 | 0.00 | 86 | 1017.1 |
| 20260906220059 | 14 | 105 | 8.0 | 14.5 | 0.00 | 0.00 | 0.00 | 88 | 1017.3 |
| 20260906214555 | 14 | 98 | 8.0 | 14.5 | 0.00 | 0.00 | 0.00 | 88 | 1017.2 |
| 20260906213051 | 14 | 105 | 8.0 | 14.5 | 0.00 | 0.00 | 0.00 | 88 | 1017.4 |
| 20260906211601 | 13 | 123 | 8.0 | 16.1 | 0.00 | 0.00 | 0.00 | 89 | 1017.6 |
| 20260906204550 | 13 | 94 | 6.4 | 16.1 | 0.00 | 0.00 | 0.00 | 93 | 1017.7 |
| 20260906203050 | 13 | 108 | 11.3 | 17.7 | 0.00 | 0.00 | 0.00 | 93 | 1017.8 |
| 20260906201556 | 13 | 98 | 11.3 | 16.1 | 0.00 | 0.00 | 0.00 | 93 | 1017.9 |
| 20260906200056 | 13 | 132 | 4.8 | 12.9 | 0.00 | 0.00 | 0.00 | 94 | 1018.0 |
| 20260906194551 | 13 | 113 | 4.8 | 11.3 | 0.00 | 0.00 | 0.00 | 93 | 1018.2 |
| 20260906193058 | 13 | 121 | 6.4 | 14.5 | 0.00 | 0.00 | 0.00 | 92 | 1018.1 |
| 20260906191557 | 13 | 118 | 8.0 | 12.9 | 0.00 | 0.00 | 0.00 | 92 | 1018.1 |
| 20260906190053 | 12 | 144 | 8.0 | 14.5 | 0.00 | 0.00 | 0.00 | 92 | 1018.2 |
| 20260906184609 | 12 | 113 | 8.0 | 17.7 | 0.00 | 0.00 | 0.00 | 93 | 1018.4 |
| 20260906183047 | 12 | 123 | 8.0 | 16.1 | 0.00 | 0.00 | 0.00 | 93 | 1018.5 |
| 20260906181602 | 12 | 100 | 11.3 | 16.1 | 0.00 | 0.00 | 0.00 | 94 | 1018.6 |
| 20260906180054 | 12 | 112 | 8.0 | 14.5 | 0.00 | 0.00 | 0.00 | 94 | 1018.7 |
| 20260906174552 | 12 | 98 | 8.0 | 22.5 | 0.00 | 0.00 | 0.00 | 94 | 1018.9 |
| 20260906173106 | 12 | 90 | 8.0 | 20.9 | 0.00 | 0.00 | 0.00 | 94 | 1018.9 |
| 20260906171558 | 12 | 94 | 11.3 | 17.7 | 0.00 | 0.00 | 0.00 | 94 | 1018.9 |
| 20260906170051 | 12 | 105 | 9.7 | 16.1 | 0.00 | 0.00 | 0.00 | 95 | 1018.9 |
| 20260906164615 | 12 | 105 | 6.4 | 12.9 | 0.00 | 0.00 | 0.00 | 96 | 1019.1 |
| 20260906163059 | 12 | 107 | 4.8 | 12.9 | 0.00 | 0.00 | 0.00 | 96 | 1019.1 |
| 20260906161601 | 12 | 91 | 9.7 | 14.5 | 0.00 | 0.00 | 0.00 | 96 | 1018.9 |
| 20260906160051 | 12 | 89 | 8.0 | 14.5 | 0.00 | 0.00 | 0.00 | 95 | 1019.1 |
| 20260906154601 | 12 | 81 | 6.4 | 12.9 | 0.00 | 0.00 | 0.00 | 95 | 1018.8 |
| 20260906153059 | 12 | 80 | 8.0 | 14.5 | 0.00 | 0.00 | 0.00 | 95 | 1018.7 |
| 20260906151600 | 12 | 61 | 3.2 | 8.0 | 0.00 | 0.00 | 0.00 | 96 | 1018.7 |
| 20260906150052 | 12 | 72 | 4.8 | 11.3 | 0.00 | 0.00 | 0.00 | 96 | 1018.9 |
| 20260906144606 | 11 | 71 | 3.2 | 6.4 | 0.00 | 0.00 | 0.00 | 96 | 1019.1 |
| 20260906143110 | 11 | 75 | 1.6 | 6.4 | 0.00 | 0.00 | 0.00 | 96 | 1019.4 |
| 20260906141554 | 11 | 67 | 1.6 | 4.8 | 0.00 | 0.00 | 0.00 | 96 | 1019.4 |
| 20260906140048 | 11 | 97 | 1.6 | 4.8 | 0.00 | 0.00 | 0.00 | 96 | 1019.5 |
| 20260906134554 | 11 | 112 | 1.6 | 3.2 | 0.00 | 0.00 | 0.00 | 96 | 1019.5 |
| 20260906133101 | 11 | 112 | 0.0 | 1.6 | 0.00 | 0.00 | 0.00 | 96 | 1019.3 |
| 20260906131556 | 11 | 112 | 0.0 | 1.6 | 0.00 | 0.00 | 0.00 | 96 | 1019.6 |
| 20260906130059 | 11 | 0 | 0.0 | 1.6 | 0.00 | 0.00 | 0.00 | 96 | 1019.6 |
| 20260906124559 | 11 | 0 | 0.0 | 1.6 | 0.00 | 0.00 | 0.00 | 96 | 1020.0 |
| 20260906123049 | 11 | 0 | 0.0 | 1.6 | 0.00 | 0.00 | 0.00 | 96 | 1020.1 |
| 20260906121547 | 11 | 0 | 0.0 | 1.6 | 0.00 | 0.00 | 0.00 | 96 | 1020.1 |
| 20260906120103 | 11 | 112 | 1.6 | 4.8 | 0.00 | 0.00 | 0.00 | 96 | 1020.2 |
| 20260906114552 | 11 | 121 | 1.6 | 3.2 | 0.00 | 0.00 | 0.00 | 96 | 1020.1 |
| 20260906113051 | 11 | 121 | 1.6 | 4.8 | 0.00 | 0.00 | 0.00 | 96 | 1020.0 |
| 20260906111554 | 11 | 95 | 3.2 | 6.4 | 0.00 | 0.00 | 0.00 | 96 | 1019.9 |
| 20260906110052 | 11 | 96 | 1.6 | 4.8 | 0.00 | 0.00 | 0.00 | 96 | 1019.9 |
| 20260906104552 | 11 | 148 | 1.6 | 4.8 | 0.00 | 0.00 | 0.00 | 96 | 1020.3 |
| 20260906103053 | 11 | 154 | 1.6 | 4.8 | 0.00 | 0.00 | 0.00 | 95 | 1020.4 |
| 20260906101559 | 11 | 145 | 0.0 | 4.8 | 0.00 | 0.00 | 0.00 | 95 | 1020.5 |
| 20260906100052 | 11 | 134 | 1.6 | 4.8 | 0.00 | 0.00 | 0.00 | 95 | 1020.6 |
| 20260906094553 | 11 | 0 | 1.6 | 3.2 | 0.00 | 0.00 | 0.00 | 95 | 1020.7 |
| 20260906093101 | 11 | 209 | 1.6 | 4.8 | 0.00 | 0.00 | 0.00 | 94 | 1020.9 |
| 20260906091557 | 11 | 188 | 1.6 | 4.8 | 0.00 | 0.00 | 0.00 | 94 | 1021.0 |
| 20260906090104 | 11 | 119 | 3.2 | 6.4 | 0.00 | 0.00 | 0.00 | 95 | 1021.0 |
| 20260906084559 | 11 | 86 | 3.2 | 6.4 | 0.00 | 0.00 | 0.00 | 94 | 1021.0 |
| 20260906083049 | 11 | 78 | 3.2 | 8.0 | 0.00 | 0.00 | 0.00 | 94 | 1021.1 |
| 20260906081600 | 11 | 63 | 3.2 | 4.8 | 0.00 | 0.00 | 0.00 | 94 | 1021.3 |
| 20260906080055 | 11 | 103 | 0.0 | 3.2 | 0.00 | 0.00 | 0.00 | 94 | 1021.4 |
| 20260906074552 | 11 | 0 | 0.0 | 1.6 | 0.00 | 0.00 | 0.00 | 94 | 1021.7 |
| 20260906073052 | 11 | 0 | 0.0 | 1.6 | 0.00 | 0.00 | 0.00 | 94 | 1021.6 |
| 20260906071609 | 11 | 0 | 0.0 | 0.0 | 0.00 | 0.00 | 0.00 | 94 | 1021.7 |
| 20260906070050 | 11 | 0 | 0.0 | 1.6 | 0.00 | 0.00 | 0.00 | 94 | 1021.8 |
| 20260906064547 | 11 | 0 | 0.0 | 3.2 | 0.00 | 0.00 | 0.00 | 94 | 1021.5 |
| 20260906063052 | 11 | 98 | 0.0 | 4.8 | 0.00 | 0.00 | 0.00 | 93 | 1021.8 |
| 20260906061558 | 11 | 82 | 3.2 | 4.8 | 0.00 | 0.00 | 0.00 | 93 | 1021.7 |
| 20260906060059 | 11 | 0 | 0.0 | 6.4 | 0.00 | 0.00 | 0.00 | 93 | 1021.6 |
| 20260906054558 | 11 | 69 | 4.8 | 8.0 | 0.00 | 0.00 | 0.00 | 92 | 1021.4 |
| 20260906053053 | 11 | 69 | 4.8 | 6.4 | 0.00 | 0.00 | 0.00 | 92 | 1021.5 |
| 20260906051553 | 11 | 67 | 3.2 | 4.8 | 0.00 | 0.00 | 0.00 | 92 | 1021.4 |
| 20260906050121 | 11 | 77 | 1.6 | 4.8 | 0.00 | 0.00 | 0.00 | 91 | 1021.6 |
| 20260906044555 | 11 | 62 | 0.0 | 3.2 | 0.00 | 0.00 | 0.00 | 91 | 1021.6 |
| 20260906043105 | 11 | 0 | 0.0 | 3.2 | 0.00 | 0.00 | 0.00 | 91 | 1021.5 |
| 20260906041546 | 11 | 0 | 0.0 | 0.0 | 0.00 | 0.00 | 0.00 | 91 | 1021.5 |
| 20260906040059 | 11 | 0 | 0.0 | 3.2 | 0.00 | 0.00 | 0.00 | 90 | 1021.5 |
| 20260906034554 | 11 | 0 | 0.0 | 0.0 | 0.00 | 0.00 | 0.00 | 90 | 1021.7 |
| 20260906033049 | 11 | 0 | 0.0 | 1.6 | 0.00 | 0.00 | 0.00 | 90 | 1021.6 |
| 20260906031549 | 11 | 0 | 0.0 | 3.2 | 0.00 | 0.00 | 0.00 | 90 | 1021.5 |
| 20260906030105 | 11 | 37 | 0.0 | 4.8 | 0.00 | 0.00 | 0.00 | 90 | 1021.6 |
| 20260906024603 | 11 | 0 | 0.0 | 1.6 | 0.00 | 0.00 | 0.00 | 90 | 1021.5 |
| 20260906023053 | 11 | 0 | 0.0 | 0.0 | 0.00 | 0.00 | 0.00 | 90 | 1021.3 |
| 20260906021609 | 11 | 0 | 0.0 | 0.0 | 0.00 | 0.00 | 0.00 | 89 | 1021.3 |
| 20260906020051 | 11 | 0 | 0.0 | 3.2 | 0.00 | 0.00 | 0.00 | 89 | 1021.4 |
| 20260906014602 | 11 | 0 | 0.0 | 4.8 | 0.00 | 0.00 | 0.00 | 89 | 1021.2 |
| 20260906013054 | 11 | 50 | 0.0 | 6.4 | 0.00 | 0.00 | 0.00 | 89 | 1021.1 |
| 20260906011604 | 11 | 0 | 0.0 | 1.6 | 0.00 | 0.00 | 0.00 | 89 | 1021.2 |
| 20260906010100 | 11 | 0 | 0.0 | 0.0 | 0.00 | 0.00 | 0.00 | 88 | 1021.2 |
| 20260906004555 | 11 | 331 | 0.0 | 3.2 | 0.00 | 0.00 | 0.00 | 88 | 1021.1 |
| 20260906003102 | 11 | 352 | 0.0 | 3.2 | 0.00 | 0.00 | 0.00 | 88 | 1021.1 |
| 20260906001558 | 12 | 0 | 0.0 | 4.8 | 0.00 | 0.00 | 0.00 | 87 | 1021.1 |
| 20260906000100 | 12 | 0 | 0.0 | 4.8 | 0.00 | 0.00 | 0.00 | 87 | 1021.0 |
| 20260905234611 | 12 | 0 | 0.0 | 3.2 | 0.00 | 0.00 | 0.00 | 87 | 1021.1 |
| 20260905233049 | 12 | 0 | 0.0 | 3.2 | 0.00 | 0.00 | 0.00 | 87 | 1021.0 |